This demonstration page uses our WeatherBlox Daily Observations layout. Learn more.

39.92423, -83.80882

Hourly Observations for September 5, 2017

Temp ( °F °C ) Dew Point ( °F °C ) Humidity (%) Winds ( mph kmh ) Pressure ( in mb ) Visibility ( mi km ) Precip ( " mm )
12:08 am 00:08 Cloudy with Heavy Thunderstorms 66 19 63 17 88 88 WSW 13 20 29.77 1008 6 9.656064 0.07 1.778
12:56 am 00:56 Mostly Cloudy with Light Thunderstorms 65 18.3 63 17.2 93 93 SSW 7 11 29.74 1007 4 6.437376 0.22 5.588
1:19 am 01:19 Mostly Clear with Mist and Fog 64 18 63 17 94 94 SSW 10 17 29.74 1007 5 8.04672 0.01 0.254
1:36 am 01:36 Mostly Cloudy with Nearby Thunderstorms 64 18 63 17 94 94 WSW 8 13 29.77 1008 4 6.437376 0.01 0.254
1:50 am 01:50 Cloudy with Light Thunderstorms 64 18 64 18 100 100 NW 7 11 29.8 1009 4 6.437376 0.02 0.508
1:56 am 01:56 Cloudy with Light Thunderstorms 65 18.3 64 17.8 97 97 Calm 29.8 1009 4 6.437376 0.02 0.508
2:00 am 02:00 Cloudy with Heavy Thunderstorms 64 18 63 17 94 94 Calm 29.77 1008 2.5 4.02336 0.001 0.001
2:17 am 02:17 Cloudy with Heavy Thunderstorms 64 18 64 18 100 100 ESE 3 6 29.77 1008 1 1.609344 0.04 1.016
2:21 am 02:21 Cloudy with Heavy Thunderstorms 64 18 64 18 100 100 SSE 3 6 29.77 1008 1.25 2.01168 0.05 1.27
2:26 am 02:26 Cloudy with Heavy Thunderstorms 64 18 64 18 100 100 S 6 9 29.77 1008 2 3.218688 0.07 1.778
2:36 am 02:36 Cloudy with Light Thunderstorms 64 18 63 17 94 94 SE 7 11 29.74 1007 1.5 2.414016 0.11 2.794
2:49 am 02:49 Cloudy with Nearby Thunderstorms 64 18 64 18 100 100 Calm 29.74 1007 2.5 4.02336 0.17 4.318
2:56 am 02:56 Cloudy with Nearby Thunderstorms 64 17.8 64 17.8 100 100 S 5 7 29.74 1007 2.5 4.02336 0.2 5.08
3:03 am 03:03 Cloudy with Light Rain 64 18 64 18 100 100 S 3 6 29.74 1007 3 4.828032 0.03 0.762
3:05 am 03:05 Cloudy with Nearby Thunderstorms 64 18 64 18 100 100 Calm 29.74 1007 3 4.828032 0.04 1.016
3:10 am 03:10 Cloudy with Nearby Thunderstorms 64 18 64 18 100 100 Calm 29.74 1007 3 4.828032 0.06 1.524
3:19 am 03:19 Cloudy with Mist and Fog 64 18 64 18 100 100 Calm 29.74 1007 3 4.828032 0.1 2.54
3:26 am 03:26 Cloudy with Light Rain 64 18 64 18 100 100 Calm 29.74 1007 2.5 4.02336 0.13 3.302
3:42 am 03:42 Cloudy with Light Rain 64 18 64 18 100 100 Calm 29.74 1007 3 4.828032 0.21 5.334
3:51 am 03:51 Cloudy with Light Thunderstorms 64 18 64 18 100 100 Calm 29.74 1007 3 4.828032 0.26 6.604
3:53 am 03:53 Cloudy with Heavy Thunderstorms 64 18 64 18 100 100 Calm 29.74 1007 2.5 4.02336 0.27 6.858
3:56 am 03:56 Cloudy with Heavy Thunderstorms 65 18.3 64 17.8 97 97 Calm 29.74 1007 2 3.218688 0.28 7.112
4:03 am 04:03 Cloudy with Thunderstorms 64 18 64 18 100 100 W 3 6 29.74 1007 1.75 2.816352 0.04 1.016
4:10 am 04:10 Cloudy with Nearby Thunderstorms 64 18 64 18 100 100 WNW 5 7 29.77 1008 2.5 4.02336 0.07 1.778
4:21 am 04:21 Cloudy with Mist and Fog 64 18 64 18 100 100 WNW 5 7 29.77 1008 1.75 2.816352 0.13 3.302
4:30 am 04:30 Cloudy with Mist and Fog 64 18 64 18 100 100 WNW 5 7 29.77 1008 2 3.218688 0.17 4.318
4:54 am 04:54 Cloudy with Mist and Fog 64 18 64 18 100 100 WNW 6 9 29.77 1008 4 6.437376 0.28 7.112
4:56 am 04:56 Cloudy with Mist and Fog 65 18.3 64 17.8 97 97 WNW 6 9 29.77 1008 4 6.437376 0.28 7.112
5:24 am 05:24 Cloudy with Mist and Fog 64 18 63 17 94 94 NW 6 9 29.77 1008 5 8.04672 0.1 2.54
5:34 am 05:34 Cloudy with Mist and Fog 64 18 63 17 94 94 WNW 6 9 29.77 1008 6 9.656064 0.12 3.048
5:56 am 05:56 Cloudy with Mist and Fog 64 17.8 63 17.2 96 96 NW 7 11 29.77 1008 6 9.656064 0.17 4.318
6:56 am 06:56 Clear 62 16.7 61 16.1 96 96 WNW 6 9 29.77 1008 7 11.265408 0.01 0.254
7:26 am 07:26 Sunny with Mist and Fog 61 16 61 16 100 100 W 5 7 29.8 1009 2 3.218688 0 0
7:56 am 07:56 Sunny with Mist and Fog 61 16.1 60 15.6 97 97 W 6 9 29.8 1009 2.5 4.02336 0 0
8:11 am 08:11 Sunny with Mist and Fog 61 16 61 16 100 100 WNW 8 13 29.8 1009 3 4.828032 0 0
8:56 am 08:56 Sunny 62 16.7 61 16.1 96 96 W 7 11 29.83 1010 7 11.265408 0 0
9:20 am 09:20 Mostly Sunny 63 17 61 16 94 94 WNW 9 15 29.83 1010 7 11.265408 0 0
9:56 am 09:56 Sunny 62 16.7 61 16.1 96 96 W 8 13 29.83 1010 9 14.484096 0 0
10:56 am 10:56 Sunny 65 18.3 61 16.1 87 87 W 6 9 29.83 1010 10 16.09344 0 0
11:56 am 11:56 Mostly Sunny 69 20.6 62 16.7 78 78 W 8 13 29.83 1010 10 16.09344 0 0
12:56 pm 12:56 Partly Cloudy 70 21.1 58 14.4 66 66 WSW 15 24 29.83 1010 10 16.09344 0 0
1:56 pm 13:56 Mostly Cloudy 71 21.7 58 14.4 63 63 WSW 10 17 29.83 1010 10 16.09344 0 0
2:56 pm 14:56 Mostly Sunny 72 22.2 56 13.3 57 57 W 12 19 29.83 1010 10 16.09344 0 0
3:56 pm 15:56 Mostly Sunny 73 22.8 50 10 44 44 W 16 26 29.8 1009 10 16.09344 0 0
4:56 pm 16:56 Mostly Sunny 71 21.7 51 10.6 49 49 WNW 14 22 29.83 1010 10 16.09344 0 0
5:56 pm 17:56 Mostly Sunny 68 20 49 9.4 51 51 WNW 13 20 29.83 1010 10 16.09344 0 0
6:56 pm 18:56 Mostly Sunny 67 19.4 48 8.9 51 51 WNW 12 19 29.85 1011 10 16.09344 0 0
7:56 pm 19:56 Sunny 62 16.7 48 8.9 60 60 WNW 8 13 29.88 1012 10 16.09344 0 0
8:56 pm 20:56 Clear 56 13.3 49 9.4 77 77 W 6 9 29.88 1012 10 16.09344 0 0
9:56 pm 21:56 Clear 55 12.8 49 9.4 80 80 W 7 11 29.91 1013 10 16.09344 0 0
10:56 pm 22:56 Clear 54 12.2 49 9.4 83 83 WNW 8 13 29.91 1013 10 16.09344 0 0
11:56 pm 23:56 Clear 52 11.1 49 9.4 89 89 W 7 11 29.91 1013 10 16.09344 0 0

Powered by AerisWeather